weather.gov     
National Weather Service

Regional Weather Roundup
NWS Homepage
This page is being discontinued on March 12, 2014.
The same data is available at this site. Please update your bookmarks.
Thank you, and we apologize for the inconvenience.
Please send an email to SR-SRH.Webmaster@noaa.gov with any concerns.


Current Version
Previous Version:    01  02  03  04  05  06  07  08  09  10  11  12  13  14  15  16  17  18  19  20  21  22  23  24  25  26  
[Printable]
664
ASUS45 KBOU 310707
RWRCO

WEATHER ROUNDUP FOR COLORADO
NATIONAL WEATHER SERVICE DENVER/BOULDER CO
1200 AM MST SAT JAN 31 2015

NOTE: "FAIR" INDICATES FEW OR NO CLOUDS BELOW 12000 FEET WITH NO
SIGNIFICANT WEATHER AND/OR OBSTRUCTIONS TO VISIBILITY.

COZ001>005-013-030-031-310800-
...NORTHWEST COLORADO...

CITY           SKY/WX    TMP DP  RH WIND       PRES   REMARKS
CRAIG          LGT RAIN  34  32  92 CALM      29.95F
HAYDEN         CLOUDY    32  28  86 SW3       29.94F
MEEKER         LGT SNOW  33  32  96 CALM      29.94F VSB 1
MOUNT WERNER   NOT AVBL
STEAMBOAT SPGS CLOUDY    32  29  89 CALM      29.94F
WALDEN         CLOUDY    30  27  86 E5        29.96F WCI  25
$$

COZ006>008-011-310800-
...WEST CENTRAL VALLEYS...

CITY           SKY/WX    TMP DP  RH WIND       PRES   REMARKS
GRAND JUNCTION LGT RAIN  38  38 100 CALM      29.94S FOG
MONTROSE       CLOUDY    38  37  97 CALM      29.95F
EAGLE          CLOUDY    34  32  93 CALM      29.99S
RIFLE          LGT RAIN  36  35  96 CALM      29.95F
DELTA          LGT RAIN  41  40  98 CALM      29.95F
NUCLA          CLOUDY    34  34 100 CALM      29.98F
$$

COZ017>023-064>068-310800-
...SOUTHWEST COLORADO...

CITY           SKY/WX    TMP DP  RH WIND       PRES   REMARKS
DURANGO        LGT SNOW  32  31  96 E3        29.98F FOG
CORTEZ         LGT RAIN  36  34  92 W5        29.95F
PAGOSA SPRINGS LGT SNOW  34  34 100 CALM      29.99F
TELLURIDE      FOG       31  31 100 W7        29.96F VSB 1/4 WCI  24
WOLF CREEK PAS SNOW      21  21 100 SW7       30.06S VSB 1/2 WCI  13
$$

COZ009-010-012-014-032>034-037-058>063-310800-
...CENTRAL COLORADO...

CITY           SKY/WX    TMP DP  RH WIND       PRES   REMARKS
ASPEN          CLOUDY    31  29  92 CALM      29.93F
BUENA VISTA    LGT SNOW  30  29  96 CALM      30.02F
COPPER MTN     CLOUDY    27  19  74 S13G21    30.01F WCI  16
BERTHOUD PASS  CLOUDY    16  10  79 MISG      30.03F
COTTONWOOD PAS SNOW      30  28  93 CALM      30.03F VSB 1/4
GUNNISON       CLOUDY    32  28  86 N7        29.99F WCI  26
KREMMLING      FLURRIES  30  27  86 CALM      29.98F
LEADVILLE      CLOUDY    24  23  96 S5        29.99F WCI  18
MONARCH PASS     N/A     21  19  93 MISG      30.14F
SALIDA         CLOUDY    33  32  97 CALM      30.10F
SUNLIGHT       LGT SNOW  30  28  93 CALM        N/A
WILKERSON PASS CLOUDY   N/A N/A N/A S5        30.05F FOG
$$

COZ069>075-310800-
...SAN LUIS VALLEY/SANGRE DE CRISTO MOUNTAINS...

CITY           SKY/WX    TMP DP  RH WIND       PRES   REMARKS
ALAMOSA        CLOUDY    30  29  96 CALM      30.01F
LA VETA PASS   SNOW      25  23  93 NE5       30.04S VSB 1/2 WCI  19
SAGUACHE       CLOUDY    30  28  93 N3        30.02F
$$

COZ035-036-038>040-310800-
...NORTHERN COLORADO FRONT RANGE...

CITY           SKY/WX    TMP DP  RH WIND       PRES   REMARKS
DENVER INTL AP CLOUDY    35  25  66 N7        30.02F WCI  29
DMNS CITY PARK   N/A     37  25  60 N1        30.03F
AURORA         CLOUDY    34  25  70 NW5       30.03F WCI  30
FRONT RANGE AP NOT AVBL
ERIE MUNI ARPT CLOUDY    35  29  80 CALM      30.04F
BOULDER MUN AP CLOUDY    39  27  60 CALM      30.03F
CENTENNIAL     CLOUDY    36  27  69 N7        30.03F
BROOMFIELD     CLOUDY    37  27  65 N6        30.04F
FORT COLLINS   CLOUDY    37  25  60 CALM      30.05F
LONGMONT       CLOUDY    39  30  71 CALM      30.05F
$$

COZ041-046-047-076>085-087-088-310800-
...PIKES PEAK/PALMER DIVIDE AND SOUTHERN FOOTHILLS...

CITY           SKY/WX    TMP DP  RH WIND       PRES   REMARKS
COLO. SPRINGS  CLOUDY    38  27  64 NW13      30.01F
A. F. ACADEMY  CLOUDY    34  30  87 N8        30.00F WCI  27
ELLICOTT       CLOUDY   N/A N/A N/A N10       29.98F
FALCON         CLOUDY    35  24  65 N12       30.01F WCI  27
FORT CARSON    CLOUDY    38  30  74 N13       29.99F
LIMON          FOG       30  30 100 CALM      30.01F VSB 1/2
MONUMENT HILL  CLOUDY    32  30  93 NW7       30.01F WCI  26
TRINIDAD       CLOUDY    34  30  85 W14       30.02F WCI  25
$$

COZ042>045-048>051-090-091-310800-
...NORTHEAST COLORADO...

CITY           SKY/WX    TMP DP  RH WIND       PRES   REMARKS
GREELEY ARPT   CLOUDY    37  23  56 N8        30.02F
AKRON          CLOUDY    32  29  88 W8        30.00S WCI  25
BURLINGTON     CLOUDY    34  32  92 S12       30.02F WCI  25
WRAY           CLOUDY    36  34  91 E3        30.03F
STERLING       MOCLDY    32  30  93 CALM      30.01F
HOLYOKE        NOT AVBL
FORT MORGAN    MOCLDY    35  27  71 N10       30.02F WCI  27
$$

COZ086-089-092>099-310800-
...SOUTHEAST COLORADO...

CITY           SKY/WX    TMP DP  RH WIND       PRES   REMARKS
PUEBLO         CLOUDY    37  35  92 S5        30.01F
LA JUNTA       CLOUDY    38  36  92 NW5       30.01F FOG
LAMAR          CLOUDY    38  36  92 SW8       30.01F
SPRINGFIELD      N/A     33  32  96 S23G30    30.05F WCI  21
$$




U.S. Dept. of Commerce
NOAA National Weather Service
1325 East West Highway
Silver Spring, MD 20910
E-mail: w-nws.webmaster@noaa.gov
Page last modified: May 16, 2007
NATIONAL WEATHER SERVICE: for Safety, for Work, for Fun - FOR LIFE